FNG500 EFIV-EFRO

Flight info

Callsign FNG500
Flight time 1h 21m
Altitude 7500
Route LAANI LOKKA SAVUKOSKI SALLA KEMIJAERVI HEINU
Aircraft B412/L-SBDFGRTUZ/EB2

Departure

Time 2026-04-21 15:32
Airport Ivalo Airport (EFIV)

Arrival

Time 2026-04-21 16:53
Airport Rovaniemi Airport (EFRO)
Time Latitude Longitude Altitude Speed Heading
2026-04-21 15:22 68.61067 27.42139 467 ft 0 kts 227°
2026-04-21 15:29 68.61060 27.42111 477 ft 3 kts 225°
2026-04-21 15:30 68.61058 27.42049 490 ft 5 kts 319°
2026-04-21 15:30 68.61101 27.41957 485 ft 11 kts 314°
2026-04-21 15:30 68.61150 27.41812 490 ft 8 kts 262°
2026-04-21 15:30 68.61126 27.41707 501 ft 8 kts 222°
2026-04-21 15:31 68.61034 27.41420 630 ft 41 kts 227°
2026-04-21 15:31 68.60748 27.40598 691 ft 73 kts 232°
2026-04-21 15:31 68.60376 27.39509 808 ft 82 kts 228°
2026-04-21 15:31 68.59961 27.38292 953 ft 92 kts 231°
2026-04-21 15:32 68.59412 27.37201 1084 ft 103 kts 214°
2026-04-21 15:32 68.58796 27.36632 1196 ft 110 kts 199°
2026-04-21 15:32 68.58019 27.36567 1338 ft 115 kts 184°
2026-04-21 15:32 68.57263 27.36754 1463 ft 116 kts 185°
2026-04-21 15:33 68.56525 27.36872 1597 ft 110 kts 187°
2026-04-21 15:33 68.55763 27.36995 1749 ft 111 kts 189°
2026-04-21 15:33 68.55003 27.37147 1877 ft 111 kts 188°
2026-04-21 15:33 68.54222 27.37339 2015 ft 114 kts 186°
2026-04-21 15:34 68.53421 27.37567 2151 ft 116 kts 187°
2026-04-21 15:34 68.52604 27.37819 2288 ft 120 kts 186°
2026-04-21 15:34 68.51765 27.38086 2425 ft 123 kts 186°
2026-04-21 15:34 68.50921 27.38366 2558 ft 120 kts 186°
2026-04-21 15:35 68.50089 27.38637 2687 ft 122 kts 186°
2026-04-21 15:35 68.49242 27.38903 2831 ft 123 kts 185°
2026-04-21 15:35 68.48398 27.39168 2955 ft 122 kts 186°
2026-04-21 15:35 68.47555 27.39427 3091 ft 122 kts 185°
2026-04-21 15:36 68.46719 27.39682 3227 ft 120 kts 186°
2026-04-21 15:36 68.45896 27.39927 3362 ft 123 kts 186°
2026-04-21 15:36 68.45040 27.40289 3490 ft 126 kts 179°
2026-04-21 15:36 68.44201 27.41112 3623 ft 131 kts 163°
2026-04-21 15:37 68.43383 27.42326 3757 ft 137 kts 157°
2026-04-21 15:37 68.42572 27.43692 3888 ft 137 kts 154°
2026-04-21 15:37 68.41758 27.45070 4030 ft 141 kts 154°
2026-04-21 15:37 68.40904 27.46456 4159 ft 144 kts 155°
2026-04-21 15:38 68.40042 27.47849 4300 ft 145 kts 154°
2026-04-21 15:38 68.39181 27.49289 4434 ft 146 kts 153°
2026-04-21 15:38 68.38333 27.50764 4569 ft 145 kts 151°
2026-04-21 15:38 68.37494 27.52261 4704 ft 144 kts 150°
2026-04-21 15:39 68.36660 27.53767 4838 ft 144 kts 150°
2026-04-21 15:39 68.35825 27.55272 4983 ft 147 kts 152°
2026-04-21 15:39 68.34943 27.56824 5110 ft 154 kts 152°
2026-04-21 15:39 68.34042 27.58417 5238 ft 158 kts 151°
2026-04-21 15:40 68.33117 27.60070 5377 ft 160 kts 150°
2026-04-21 15:40 68.32182 27.61750 5511 ft 161 kts 150°
2026-04-21 15:40 68.31247 27.63433 5643 ft 161 kts 150°
2026-04-21 15:40 68.30316 27.65104 5777 ft 160 kts 151°
2026-04-21 15:41 68.29389 27.66757 5911 ft 159 kts 151°
2026-04-21 15:41 68.28467 27.68394 6046 ft 158 kts 152°
2026-04-21 15:41 68.27551 27.70014 6182 ft 157 kts 152°
2026-04-21 15:41 68.26641 27.71617 6317 ft 156 kts 152°
2026-04-21 15:42 68.25734 27.73209 6448 ft 156 kts 152°
2026-04-21 15:42 68.24819 27.74811 6573 ft 157 kts 152°
2026-04-21 15:42 68.23903 27.76413 6701 ft 157 kts 153°
2026-04-21 15:42 68.22985 27.78018 6792 ft 157 kts 152°
2026-04-21 15:43 68.22080 27.79604 6914 ft 153 kts 152°
2026-04-21 15:43 68.21189 27.81159 7046 ft 153 kts 152°
2026-04-21 15:43 68.20313 27.82681 7181 ft 151 kts 152°
2026-04-21 15:43 68.19428 27.84214 7310 ft 151 kts 153°
2026-04-21 15:44 68.18545 27.85742 7441 ft 151 kts 153°
2026-04-21 15:44 68.17631 27.87316 7444 ft 161 kts 152°
2026-04-21 15:44 68.16669 27.88973 7448 ft 168 kts 152°
2026-04-21 15:44 68.15667 27.90688 7443 ft 173 kts 152°
2026-04-21 15:45 68.14641 27.92450 7441 ft 176 kts 151°
2026-04-21 15:45 68.13607 27.94234 7442 ft 177 kts 151°
2026-04-21 15:45 68.12568 27.96033 7442 ft 178 kts 151°
2026-04-21 15:45 68.11526 27.97834 7452 ft 178 kts 151°
2026-04-21 15:46 68.10477 27.99643 7451 ft 179 kts 151°
2026-04-21 15:46 68.09430 28.01445 7451 ft 179 kts 151°
2026-04-21 15:46 68.08391 28.03230 7451 ft 179 kts 151°
2026-04-21 15:46 68.07337 28.05034 7451 ft 180 kts 151°
2026-04-21 15:47 68.06285 28.06834 7449 ft 179 kts 151°
2026-04-21 15:47 68.05231 28.08633 7449 ft 179 kts 151°
2026-04-21 15:47 68.04174 28.10435 7449 ft 179 kts 151°
2026-04-21 15:47 68.03135 28.12206 7449 ft 179 kts 151°
2026-04-21 15:48 68.02076 28.14059 7449 ft 180 kts 146°
2026-04-21 15:48 68.01136 28.16229 7449 ft 181 kts 137°
2026-04-21 15:48 68.00257 28.18652 7448 ft 181 kts 133°
2026-04-21 15:48 67.99410 28.21156 7448 ft 182 kts 132°
2026-04-21 15:49 67.98572 28.23661 7449 ft 181 kts 132°
2026-04-21 15:49 67.97720 28.26160 7449 ft 182 kts 133°
2026-04-21 15:49 67.96857 28.28623 7449 ft 182 kts 134°
2026-04-21 15:49 67.95981 28.31062 7449 ft 182 kts 134°
2026-04-21 15:50 67.95098 28.33479 7449 ft 182 kts 135°
2026-04-21 15:50 67.94206 28.35902 7448 ft 182 kts 135°
2026-04-21 15:50 67.93317 28.38312 7448 ft 183 kts 135°
2026-04-21 15:50 67.92431 28.40719 7449 ft 182 kts 135°
2026-04-21 15:51 67.91544 28.43134 7452 ft 183 kts 135°
2026-04-21 15:51 67.90658 28.45555 7449 ft 182 kts 135°
2026-04-21 15:51 67.89777 28.47965 7449 ft 182 kts 135°
2026-04-21 15:51 67.88892 28.50376 7450 ft 183 kts 135°
2026-04-21 15:52 67.88010 28.52738 7450 ft 183 kts 135°
2026-04-21 15:52 67.87111 28.55130 7449 ft 183 kts 136°
2026-04-21 15:52 67.86504 28.56750 7448 ft 183 kts 135°
2026-04-21 15:52 67.85316 28.59938 7457 ft 184 kts 135°
2026-04-21 15:53 67.84424 28.62348 7460 ft 183 kts 135°
2026-04-21 15:53 67.83536 28.64759 7460 ft 183 kts 135°
2026-04-21 15:53 67.82647 28.67178 7459 ft 183 kts 135°
2026-04-21 15:53 67.81761 28.69588 7460 ft 183 kts 135°
2026-04-21 15:54 67.80869 28.72014 7458 ft 184 kts 135°
2026-04-21 15:54 67.79979 28.74431 7457 ft 182 kts 135°
2026-04-21 15:54 67.79104 28.76803 7458 ft 182 kts 135°
2026-04-21 15:54 67.78216 28.79205 7457 ft 183 kts 135°
2026-04-21 15:55 67.77329 28.81604 7457 ft 183 kts 135°
2026-04-21 15:55 67.76440 28.84005 7458 ft 183 kts 135°
2026-04-21 15:55 67.75547 28.86414 7457 ft 183 kts 135°
2026-04-21 15:55 67.74654 28.88823 7457 ft 184 kts 135°
2026-04-21 15:56 67.73760 28.91232 7455 ft 183 kts 135°
2026-04-21 15:56 67.72866 28.93637 7455 ft 184 kts 135°
2026-04-21 15:56 67.71983 28.96013 7454 ft 184 kts 135°
2026-04-21 15:56 67.71088 28.98414 7454 ft 184 kts 135°
2026-04-21 15:57 67.70192 29.00819 7458 ft 185 kts 135°
2026-04-21 15:57 67.69293 29.03230 7456 ft 184 kts 135°
2026-04-21 15:57 67.68394 29.05635 7457 ft 184 kts 135°
2026-04-21 15:57 67.67493 29.08038 7457 ft 184 kts 135°
2026-04-21 15:58 67.66898 29.09626 7454 ft 184 kts 135°
2026-04-21 15:58 67.66001 29.12019 7463 ft 184 kts 135°
2026-04-21 15:58 67.65103 29.14413 7456 ft 184 kts 135°
2026-04-21 15:58 67.64203 29.16808 7455 ft 184 kts 135°
2026-04-21 15:59 67.63305 29.19193 7454 ft 184 kts 135°
2026-04-21 15:59 67.62251 29.20861 7453 ft 173 kts 174°
2026-04-21 15:59 67.61094 29.20843 7456 ft 161 kts 201°
2026-04-21 15:59 67.60052 29.19928 7456 ft 156 kts 215°
2026-04-21 16:00 67.59098 29.18638 7445 ft 153 kts 222°
2026-04-21 16:00 67.58218 29.17161 7446 ft 149 kts 224°
2026-04-21 16:00 67.57351 29.15660 7455 ft 150 kts 223°
2026-04-21 16:00 67.56474 29.14230 7459 ft 151 kts 221°
2026-04-21 16:01 67.55564 29.12858 7459 ft 151 kts 219°
2026-04-21 16:01 67.54632 29.11544 7460 ft 153 kts 218°
2026-04-21 16:01 67.53681 29.10262 7459 ft 154 kts 217°
2026-04-21 16:01 67.52723 29.08998 7460 ft 154 kts 217°
2026-04-21 16:02 67.51764 29.07738 7456 ft 154 kts 217°
2026-04-21 16:02 67.50808 29.06471 7457 ft 154 kts 217°
2026-04-21 16:02 67.49852 29.05190 7457 ft 154 kts 217°
2026-04-21 16:02 67.48897 29.03898 7457 ft 155 kts 217°
2026-04-21 16:03 67.47951 29.02607 7460 ft 155 kts 218°
2026-04-21 16:03 67.46998 29.01297 7462 ft 155 kts 218°
2026-04-21 16:03 67.46046 28.99984 7462 ft 155 kts 218°
2026-04-21 16:03 67.45099 28.98673 7461 ft 154 kts 218°
2026-04-21 16:04 67.44162 28.97372 7460 ft 152 kts 218°
2026-04-21 16:04 67.43228 28.96069 7461 ft 153 kts 218°
2026-04-21 16:04 67.42290 28.94758 7462 ft 153 kts 218°
2026-04-21 16:04 67.41347 28.93441 7459 ft 154 kts 218°
2026-04-21 16:05 67.40404 28.92129 7462 ft 154 kts 218°
2026-04-21 16:05 67.39463 28.90821 7462 ft 153 kts 218°
2026-04-21 16:05 67.38524 28.89515 7463 ft 153 kts 218°
2026-04-21 16:05 67.37595 28.88218 7463 ft 154 kts 218°
2026-04-21 16:06 67.36649 28.86897 7460 ft 155 kts 218°
2026-04-21 16:06 67.35691 28.85565 7465 ft 154 kts 218°
2026-04-21 16:06 67.34759 28.84269 7464 ft 153 kts 218°
2026-04-21 16:06 67.33821 28.82966 7465 ft 153 kts 218°
2026-04-21 16:07 67.32886 28.81663 7467 ft 153 kts 218°
2026-04-21 16:07 67.31949 28.80359 7466 ft 153 kts 218°
2026-04-21 16:07 67.31006 28.79045 7465 ft 154 kts 218°
2026-04-21 16:07 67.30055 28.77724 7465 ft 155 kts 218°
2026-04-21 16:08 67.28161 28.75104 7458 ft 153 kts 218°
2026-04-21 16:08 67.27220 28.73801 7460 ft 154 kts 218°
2026-04-21 16:08 67.26277 28.72497 7462 ft 153 kts 218°
2026-04-21 16:09 67.25339 28.71198 7465 ft 153 kts 218°
2026-04-21 16:09 67.24410 28.69912 7465 ft 154 kts 218°
2026-04-21 16:09 67.23465 28.68607 7470 ft 154 kts 218°
2026-04-21 16:09 67.22524 28.67310 7471 ft 154 kts 218°
2026-04-21 16:10 67.21579 28.66007 7472 ft 154 kts 218°
2026-04-21 16:10 67.20632 28.64704 7473 ft 154 kts 218°
2026-04-21 16:10 67.19686 28.63404 7473 ft 154 kts 218°
2026-04-21 16:10 67.18743 28.62107 7472 ft 154 kts 218°
2026-04-21 16:11 67.17800 28.60813 7473 ft 153 kts 218°
2026-04-21 16:11 67.16858 28.59520 7472 ft 154 kts 218°
2026-04-21 16:11 67.15913 28.58222 7471 ft 154 kts 218°
2026-04-21 16:11 67.14965 28.56923 7471 ft 154 kts 218°
2026-04-21 16:12 67.14020 28.55630 7471 ft 154 kts 218°
2026-04-21 16:12 67.13072 28.54334 7471 ft 154 kts 218°
2026-04-21 16:12 67.12127 28.53043 7479 ft 154 kts 218°
2026-04-21 16:12 67.11191 28.51767 7479 ft 154 kts 218°
2026-04-21 16:13 67.10248 28.50481 7479 ft 154 kts 218°
2026-04-21 16:13 67.09301 28.49190 7479 ft 154 kts 218°
2026-04-21 16:13 67.08356 28.47902 7479 ft 153 kts 218°
2026-04-21 16:13 67.07413 28.46619 7479 ft 153 kts 218°
2026-04-21 16:14 67.06466 28.45330 7477 ft 154 kts 218°
2026-04-21 16:14 67.05517 28.44040 7476 ft 154 kts 218°
2026-04-21 16:14 67.04570 28.42756 7476 ft 154 kts 218°
2026-04-21 16:14 67.03621 28.41472 7476 ft 154 kts 218°
2026-04-21 16:15 67.02672 28.40189 7479 ft 154 kts 218°
2026-04-21 16:15 67.01723 28.38905 7479 ft 154 kts 218°
2026-04-21 16:15 67.00775 28.37624 7466 ft 154 kts 218°
2026-04-21 16:15 66.99827 28.36344 7470 ft 154 kts 218°
2026-04-21 16:16 66.98889 28.35076 7476 ft 155 kts 218°
2026-04-21 16:16 66.97925 28.33776 7479 ft 154 kts 218°
2026-04-21 16:16 66.96988 28.32513 7481 ft 155 kts 218°
2026-04-21 16:16 66.96034 28.31230 7479 ft 155 kts 218°
2026-04-21 16:17 66.95086 28.29956 7482 ft 154 kts 218°
2026-04-21 16:17 66.94059 28.28989 7480 ft 163 kts 199°
2026-04-21 16:17 66.92894 28.29050 7482 ft 172 kts 175°
2026-04-21 16:17 66.91745 28.30060 7482 ft 176 kts 160°
2026-04-21 16:18 66.90631 28.31402 7478 ft 176 kts 157°
2026-04-21 16:18 66.89543 28.32718 7482 ft 175 kts 160°
2026-04-21 16:18 66.88428 28.34001 7482 ft 176 kts 158°
2026-04-21 16:18 66.87307 28.35274 7480 ft 177 kts 161°
2026-04-21 16:19 66.86176 28.36507 7485 ft 177 kts 160°
2026-04-21 16:19 66.85057 28.37840 7485 ft 178 kts 158°
2026-04-21 16:19 66.83943 28.39193 7488 ft 178 kts 158°
2026-04-21 16:19 66.82823 28.40546 7488 ft 178 kts 158°
2026-04-21 16:20 66.81704 28.41911 7490 ft 178 kts 158°
2026-04-21 16:20 66.80590 28.43288 7485 ft 178 kts 157°
2026-04-21 16:20 66.79478 28.44688 7485 ft 178 kts 157°
2026-04-21 16:20 66.78370 28.46103 7485 ft 179 kts 156°
2026-04-21 16:21 66.77259 28.47495 7484 ft 178 kts 159°
2026-04-21 16:21 66.76133 28.48780 7481 ft 178 kts 159°
2026-04-21 16:21 66.75006 28.50104 7485 ft 179 kts 159°
2026-04-21 16:21 66.73880 28.51444 7483 ft 178 kts 159°
2026-04-21 16:22 66.72759 28.52779 7478 ft 178 kts 159°
2026-04-21 16:22 66.71640 28.54107 7479 ft 178 kts 159°
2026-04-21 16:22 66.70521 28.55432 7478 ft 177 kts 159°
2026-04-21 16:22 66.69409 28.56654 7479 ft 175 kts 166°
2026-04-21 16:23 66.68235 28.57275 7477 ft 170 kts 181°
2026-04-21 16:23 66.67069 28.57289 7481 ft 166 kts 193°
2026-04-21 16:23 66.65945 28.56804 7482 ft 161 kts 204°
2026-04-21 16:23 66.64898 28.55908 7482 ft 157 kts 212°
2026-04-21 16:24 66.63913 28.54749 7485 ft 156 kts 217°
2026-04-21 16:24 66.62961 28.53468 7485 ft 155 kts 219°
2026-04-21 16:24 66.62012 28.52179 7485 ft 155 kts 218°
2026-04-21 16:24 66.61048 28.50919 7466 ft 156 kts 217°
2026-04-21 16:25 66.60083 28.49669 7476 ft 156 kts 218°
2026-04-21 16:25 66.59122 28.48399 7480 ft 156 kts 217°
2026-04-21 16:25 66.58157 28.47134 7481 ft 155 kts 219°
2026-04-21 16:25 66.57287 28.45619 7483 ft 150 kts 230°
2026-04-21 16:26 66.56596 28.43770 7482 ft 144 kts 243°
2026-04-21 16:26 66.56094 28.41643 7481 ft 140 kts 253°
2026-04-21 16:26 66.55788 28.39383 7490 ft 134 kts 266°
2026-04-21 16:26 66.55668 28.37079 7487 ft 132 kts 272°
2026-04-21 16:27 66.55647 28.34790 7487 ft 131 kts 277°
2026-04-21 16:27 66.55684 28.32515 7487 ft 130 kts 278°
2026-04-21 16:27 66.55726 28.30226 7427 ft 133 kts 278°
2026-04-21 16:27 66.55760 28.27871 7326 ft 137 kts 277°
2026-04-21 16:28 66.55772 28.25457 7228 ft 139 kts 276°
2026-04-21 16:28 66.55792 28.23031 7130 ft 140 kts 277°
2026-04-21 16:28 66.55817 28.20581 7029 ft 140 kts 276°
2026-04-21 16:28 66.55836 28.18155 6930 ft 138 kts 275°
2026-04-21 16:29 66.55850 28.15750 6836 ft 140 kts 275°
2026-04-21 16:29 66.55860 28.13273 6736 ft 140 kts 275°
2026-04-21 16:29 66.55867 28.10833 6638 ft 140 kts 275°
2026-04-21 16:29 66.55874 28.08425 6541 ft 140 kts 275°
2026-04-21 16:30 66.55881 28.05984 6444 ft 139 kts 276°
2026-04-21 16:30 66.55889 28.03548 6343 ft 139 kts 275°
2026-04-21 16:30 66.55899 28.01111 6239 ft 139 kts 275°
2026-04-21 16:30 66.55909 27.98667 6137 ft 141 kts 275°
2026-04-21 16:31 66.55919 27.96204 6030 ft 141 kts 275°
2026-04-21 16:31 66.55930 27.93745 5923 ft 140 kts 275°
2026-04-21 16:31 66.55941 27.91302 5821 ft 140 kts 275°
2026-04-21 16:31 66.55954 27.88846 5716 ft 141 kts 275°
2026-04-21 16:32 66.55967 27.86384 5616 ft 141 kts 275°
2026-04-21 16:32 66.55979 27.83914 5513 ft 142 kts 275°
2026-04-21 16:32 66.55991 27.81440 5410 ft 142 kts 275°
2026-04-21 16:32 66.56001 27.78978 5304 ft 140 kts 275°
2026-04-21 16:33 66.56010 27.76549 5202 ft 138 kts 275°
2026-04-21 16:33 66.56020 27.74136 5101 ft 138 kts 275°
2026-04-21 16:33 66.56031 27.71728 4999 ft 138 kts 275°
2026-04-21 16:33 66.56043 27.69318 4900 ft 139 kts 275°
2026-04-21 16:34 66.56055 27.66889 4799 ft 139 kts 275°
2026-04-21 16:34 66.56065 27.64467 4703 ft 141 kts 274°
2026-04-21 16:34 66.56073 27.62018 4594 ft 139 kts 274°
2026-04-21 16:34 66.56079 27.59603 4489 ft 138 kts 274°
2026-04-21 16:35 66.56086 27.57194 4386 ft 138 kts 274°
2026-04-21 16:35 66.56095 27.54769 4282 ft 140 kts 274°
2026-04-21 16:35 66.56105 27.52324 4177 ft 139 kts 274°
2026-04-21 16:35 66.56113 27.49889 4070 ft 139 kts 274°
2026-04-21 16:36 66.56118 27.47480 3967 ft 137 kts 274°
2026-04-21 16:36 66.56124 27.45090 3866 ft 137 kts 274°
2026-04-21 16:36 66.56131 27.42706 3755 ft 136 kts 274°
2026-04-21 16:36 66.56139 27.40355 3657 ft 137 kts 274°
2026-04-21 16:37 66.56147 27.37945 3553 ft 138 kts 274°
2026-04-21 16:37 66.56155 27.35542 3450 ft 137 kts 273°
2026-04-21 16:37 66.56162 27.33152 3348 ft 137 kts 273°
2026-04-21 16:37 66.56170 27.30749 3248 ft 138 kts 272°
2026-04-21 16:38 66.56175 27.28339 3143 ft 137 kts 272°
2026-04-21 16:38 66.56184 27.25940 3039 ft 138 kts 272°
2026-04-21 16:38 66.56116 27.23524 2936 ft 140 kts 265°
2026-04-21 16:38 66.55963 27.21110 2831 ft 139 kts 265°
2026-04-21 16:39 66.55855 27.18703 2731 ft 139 kts 269°
2026-04-21 16:39 66.55795 27.16279 2627 ft 139 kts 270°
2026-04-21 16:39 66.55738 27.13868 2526 ft 139 kts 268°
2026-04-21 16:39 66.55664 27.11452 2420 ft 139 kts 268°
2026-04-21 16:40 66.55541 27.09041 2316 ft 139 kts 265°
2026-04-21 16:40 66.55396 27.06665 2209 ft 135 kts 266°
2026-04-21 16:40 66.55268 27.04336 2109 ft 134 kts 266°
2026-04-21 16:40 66.55142 27.02028 2007 ft 133 kts 266°
2026-04-21 16:41 66.55054 27.00513 1932 ft 132 kts 266°
2026-04-21 16:41 66.54880 26.97447 1802 ft 134 kts 265°
2026-04-21 16:41 66.54751 26.95159 1703 ft 134 kts 266°
2026-04-21 16:41 66.54612 26.92879 1704 ft 131 kts 265°
2026-04-21 16:42 66.54480 26.90627 1704 ft 130 kts 267°
2026-04-21 16:42 66.54340 26.88420 1703 ft 127 kts 266°
2026-04-21 16:42 66.54217 26.86240 1704 ft 126 kts 266°
2026-04-21 16:42 66.54107 26.84089 1705 ft 123 kts 267°
2026-04-21 16:43 66.54002 26.81942 1706 ft 125 kts 267°
2026-04-21 16:43 66.53887 26.79766 1705 ft 127 kts 268°
2026-04-21 16:43 66.53752 26.77564 1705 ft 129 kts 267°
2026-04-21 16:43 66.53627 26.75343 1704 ft 129 kts 268°
2026-04-21 16:44 66.53525 26.73116 1702 ft 128 kts 268°
2026-04-21 16:44 66.53443 26.70894 1704 ft 128 kts 269°
2026-04-21 16:44 66.53366 26.68653 1705 ft 130 kts 269°
2026-04-21 16:44 66.53316 26.67166 1705 ft 129 kts 269°
2026-04-21 16:45 66.53230 26.64928 1702 ft 128 kts 269°
2026-04-21 16:45 66.53125 26.62726 1705 ft 126 kts 267°
2026-04-21 16:45 66.53016 26.60557 1707 ft 125 kts 268°
2026-04-21 16:45 66.52863 26.57661 1708 ft 127 kts 267°
2026-04-21 16:46 66.52786 26.56159 1710 ft 130 kts 267°
2026-04-21 16:46 66.52671 26.53899 1707 ft 131 kts 268°
2026-04-21 16:46 66.52553 26.51668 1707 ft 131 kts 267°
2026-04-21 16:46 66.52438 26.49411 1707 ft 130 kts 268°
2026-04-21 16:47 66.52324 26.47143 1686 ft 133 kts 267°
2026-04-21 16:47 66.52212 26.44832 1636 ft 134 kts 267°
2026-04-21 16:47 66.52104 26.42485 1581 ft 137 kts 267°
2026-04-21 16:47 66.51999 26.40107 1522 ft 138 kts 267°
2026-04-21 16:48 66.51896 26.37713 1409 ft 138 kts 267°
2026-04-21 16:48 66.51799 26.35292 1320 ft 141 kts 267°
2026-04-21 16:48 66.51716 26.32849 1280 ft 139 kts 267°
2026-04-21 16:48 66.51647 26.30464 1286 ft 136 kts 267°
2026-04-21 16:49 66.51581 26.28102 1284 ft 135 kts 268°
2026-04-21 16:49 66.51496 26.25800 1281 ft 131 kts 267°
2026-04-21 16:49 66.51380 26.23528 1284 ft 130 kts 265°
2026-04-21 16:49 66.51258 26.21281 1283 ft 131 kts 265°
2026-04-21 16:50 66.51128 26.19057 1284 ft 131 kts 265°
2026-04-21 16:50 66.50993 26.16757 1287 ft 131 kts 264°
2026-04-21 16:50 66.50883 26.14521 1283 ft 131 kts 266°
2026-04-21 16:50 66.50862 26.12253 1284 ft 130 kts 274°
2026-04-21 16:51 66.50949 26.09991 1282 ft 130 kts 281°
2026-04-21 16:51 66.51162 26.07808 1283 ft 128 kts 288°
2026-04-21 16:51 66.51458 26.05691 1284 ft 129 kts 292°
2026-04-21 16:51 66.51787 26.03609 1283 ft 128 kts 291°
2026-04-21 16:52 66.52126 26.01564 1271 ft 123 kts 292°
2026-04-21 16:52 66.52415 25.99682 1271 ft 107 kts 290°
2026-04-21 16:52 66.52648 25.98049 1274 ft 92 kts 289°
2026-04-21 16:52 66.52842 25.96654 1286 ft 78 kts 289°
2026-04-21 16:53 66.53006 25.95422 1222 ft 72 kts 288°
2026-04-21 16:53 66.53157 25.94324 1172 ft 62 kts 287°
2026-04-21 16:53 66.53309 25.93340 1118 ft 58 kts 288°
2026-04-21 16:53 66.53434 25.92478 1077 ft 48 kts 285°
2026-04-21 16:54 66.53534 25.91724 1028 ft 43 kts 285°
2026-04-21 16:54 66.53631 25.91031 981 ft 42 kts 287°
2026-04-21 16:54 66.53746 25.90337 976 ft 43 kts 289°
2026-04-21 16:54 66.53872 25.89645 970 ft 44 kts 292°
2026-04-21 16:55 66.53989 25.88949 969 ft 42 kts 291°
2026-04-21 16:55 66.54083 25.88288 992 ft 43 kts 287°
2026-04-21 16:55 66.54164 25.87470 962 ft 50 kts 281°
2026-04-21 16:55 66.54144 25.86628 975 ft 46 kts 270°
2026-04-21 16:56 66.53993 25.85828 978 ft 60 kts 251°
2026-04-21 16:56 66.53633 25.85151 986 ft 73 kts 218°
2026-04-21 16:56 66.53074 25.84757 981 ft 89 kts 185°
2026-04-21 16:56 66.52452 25.84899 975 ft 91 kts 161°
2026-04-21 16:57 66.51920 25.85691 974 ft 90 kts 133°
2026-04-21 16:57 66.51574 25.86961 974 ft 87 kts 105°
2026-04-21 16:57 66.51413 25.88406 977 ft 86 kts 90°
2026-04-21 16:57 66.51426 25.89848 964 ft 75 kts 63°
2026-04-21 16:58 66.51624 25.90887 982 ft 62 kts 38°
2026-04-21 16:58 66.51991 25.91448 982 ft 64 kts
2026-04-21 16:58 66.52449 25.91481 982 ft 68 kts 348°
2026-04-21 16:58 66.52886 25.91218 968 ft 60 kts 333°
2026-04-21 16:59 66.53228 25.90718 983 ft 56 kts 320°
2026-04-21 16:59 66.53513 25.90006 976 ft 59 kts 310°
2026-04-21 16:59 66.53757 25.89138 977 ft 62 kts 305°
2026-04-21 16:59 66.53989 25.88258 974 ft 57 kts 303°
2026-04-21 17:00 66.54118 25.87364 973 ft 54 kts 286°
2026-04-21 17:00 66.54091 25.86450 979 ft 52 kts 266°
2026-04-21 17:00 66.53996 25.85874 977 ft 56 kts 250°
2026-04-21 17:00 66.53577 25.85020 981 ft 65 kts 214°
2026-04-21 17:01 66.53081 25.84800 990 ft 83 kts 188°
2026-04-21 17:01 66.52453 25.85004 980 ft 98 kts 168°
2026-04-21 17:01 66.51795 25.85701 977 ft 107 kts 149°
2026-04-21 17:01 66.51194 25.86849 975 ft 110 kts 133°
2026-04-21 17:02 66.50716 25.88337 975 ft 109 kts 116°
2026-04-21 17:02 66.50304 25.89953 973 ft 112 kts 131°
2026-04-21 17:02 66.49675 25.91022 971 ft 108 kts 160°
2026-04-21 17:02 66.48956 25.91275 977 ft 104 kts 189°
2026-04-21 17:03 66.48273 25.90770 973 ft 100 kts 210°
2026-04-21 17:03 66.47746 25.89743 970 ft 92 kts 236°
2026-04-21 17:03 66.47473 25.88464 975 ft 77 kts 262°
2026-04-21 17:03 66.47468 25.87195 982 ft 72 kts 283°
2026-04-21 17:04 66.47688 25.86048 985 ft 75 kts 297°
2026-04-21 17:04 66.47897 25.84828 977 ft 77 kts 294°
2026-04-21 17:04 66.48092 25.83639 967 ft 70 kts 294°
2026-04-21 17:04 66.48285 25.82656 968 ft 56 kts 294°
2026-04-21 17:05 66.48453 25.81800 984 ft 57 kts 292°
2026-04-21 17:05 66.48617 25.80884 969 ft 55 kts 292°
2026-04-21 17:05 66.48758 25.80030 978 ft 51 kts 290°
2026-04-21 17:05 66.48882 25.79189 953 ft 51 kts 292°
2026-04-21 17:06 66.48992 25.78536 941 ft 30 kts 288°
2026-04-21 17:06 66.49072 25.78240 814 ft 14 kts 291°
2026-04-21 17:06 66.49137 25.78043 598 ft 15 kts 290°
2026-04-21 17:06 66.49173 25.77909 465 ft 5 kts 292°
2026-04-21 17:07 66.49179 25.77882 427 ft 2 kts 295°
2026-04-21 17:07 66.49184 25.77861 406 ft 1 kts 295°
2026-04-21 17:07 66.49185 25.77859 398 ft 0 kts 292°
2026-04-21 17:12 66.49183 25.77881 431 ft 4 kts 296°
2026-04-21 17:12 66.49161 25.77991 759 ft 2 kts 294°
2026-04-21 17:12 66.49217 25.77807 1110 ft 28 kts 293°
2026-04-21 17:13 66.49385 25.77237 1261 ft 61 kts 303°
2026-04-21 17:13 66.49822 25.76346 1157 ft 95 kts 323°
2026-04-21 17:13 66.50419 25.75388 1121 ft 109 kts 327°
2026-04-21 17:13 66.51174 25.74784 1019 ft 121 kts 349°
2026-04-21 17:14 66.52027 25.74941 826 ft 126 kts
2026-04-21 17:14 66.52806 25.75943 730 ft 126 kts 34°
2026-04-21 17:14 66.53295 25.77709 763 ft 123 kts 63°
2026-04-21 17:14 66.53413 25.79793 831 ft 121 kts 82°
2026-04-21 17:15 66.53501 25.81819 821 ft 109 kts 68°
2026-04-21 17:15 66.53830 25.83277 938 ft 84 kts 31°
2026-04-21 17:15 66.54293 25.83603 1000 ft 61 kts 342°
2026-04-21 17:15 66.54585 25.82983 1075 ft 53 kts 308°
2026-04-21 17:16 66.54818 25.82292 1049 ft 44 kts 308°
2026-04-21 17:16 66.54954 25.81848 951 ft 21 kts 305°
2026-04-21 17:16 66.55066 25.81579 781 ft 21 kts 306°
2026-04-21 17:16 66.55126 25.81452 679 ft 7 kts 307°
2026-04-21 17:17 66.55147 25.81388 651 ft 3 kts 308°
2026-04-21 17:17 66.55156 25.81360 644 ft 1 kts 304°
2026-04-21 17:17 66.55157 25.81355 631 ft 0 kts 304°